Regional Weather Roundup
Issued by NWS

Home | Current Version | Previous Version | Graphics & Text | Print | Product List | Glossary On
Versions: 1 2 3 4 5 6 7 8 9 10 11 12 13 14 15 16 17 18 19 20 21 22 23 24 25 26 27 28 29 30 31 32 33 34 35 36 37 38 39 40 41 42 43 44 45 46 47 48 49 50
000
ASUS43 KDMX 271801
RWRIA

WEATHER ROUNDUP FOR IOWA
NATIONAL WEATHER SERVICE DES MOINES IA
100 PM CDT TUE JUN 27 2017

NOTE: "FAIR" INDICATES FEW OR NO CLOUDS BELOW 12,000 FEET WITH NO
SIGNIFICANT WEATHER AND/OR OBSTRUCTIONS TO VISIBILITY.

* - THESE STATIONS ARE NOT NWS STATIONS...THUS NOT UNDER NWS
QUALITY CONTROL.  THEY ALSO DO NOT REPORT WEATHER SUCH
AS PRECIPITATION OR FOG.

IAZ001>003-012>014-020>022-031>034-043>046-271900-
   NORTHWEST IOWA

CITY           SKY/WX    TMP DP  RH WIND       PRES   REMARKS
CARROLL *      SUNNY     75  48  38 SE16      30.03F
CHEROKEE *     SUNNY     73  47  38 S16G24    29.99F
DENISON *      SUNNY     73  50  43 S12G21    30.02F
LE MARS *      SUNNY     73  46  38 S18G26    29.97F
ORANGE CITY *  SUNNY     72  46  40 S15G23    29.98F
SHELDON *      SUNNY     73  46  38 S18G29    29.97F
SIOUX CITY     SUNNY     76  53  44 S17G26    29.97F
6HR MIN TEMP:  50; 6HR MAX TEMP:  76;

SPENCER        SUNNY     75  44  33 S17G25    30.00F
6HR MIN TEMP:  51; 6HR MAX TEMP:  76;

STORM LAKE *   SUNNY     73  45  35 S15G25    30.01F
$$

IAZ055>058-069>071-079>083-090>094-271900-
   SOUTHWEST IOWA

CITY           SKY/WX    TMP DP  RH WIND       PRES   REMARKS
ATLANTIC *     SUNNY     75  52  43 SE14G22   30.02F
AUDUBON *      SUNNY     73  54  49 S10       30.04F
CLARINDA *     MOSUNNY   75  59  57 SE14G21   30.05F
COUNCIL BLFS * SUNNY     75  61  60 S18G29    30.00F
CRESTON *      SUNNY     75  52  43 S16       30.06F
HARLAN  *      SUNNY     75  52  43 S10G22    30.05F
LAMONI         SUNNY     75  55  49 SE9G16    30.07F
6HR MIN TEMP:  56; 6HR MAX TEMP:  75;

RED OAK *      MOSUNNY   75  59  57 SE13G20   30.02F
SHENANDOAH *   SUNNY     75  61  60 SE14      30.02F
$$

IAZ047>049-059>061-072>074-084-271900-
   CENTRAL IOWA

CITY           SKY/WX    TMP DP  RH WIND       PRES   REMARKS
AMES           SUNNY     73  48  41 S13       30.07F
6HR MIN TEMP:  50; 6HR MAX TEMP:  74;

ANKENY *       SUNNY     73  48  40 S12G17    30.08F
BOONE *        SUNNY     73  45  35 S14       30.05F
CHARITON *     SUNNY     75  50  41 S10G17    30.07F
DES MOINES     MOSUNNY   74  46  36 S10       30.06F
6HR MIN TEMP:  55; 6HR MAX TEMP:  75;

GRINNELL*      SUNNY     72  42  33 S8G16     30.10F
KNOXVILLE *    SUNNY     73  46  38 S8G15     30.07F
MARSHALLTOWN   SUNNY     73  42  32 S9        30.07F
6HR MIN TEMP:  50; 6HR MAX TEMP:  73;

NEWTON *       SUNNY     72  45  37 S9G17     30.08F
PELLA *        SUNNY     74  45  35 S9G16     30.10F
PERRY *          N/A     73  44  36 SE8       30.05F
$$

IAZ004>006-015-016-023>025-035-036-271900-
   NORTH CENTRAL IOWA

CITY           SKY/WX    TMP DP  RH WIND       PRES   REMARKS
ALGONA *       SUNNY     73  43  33 S18G28    30.03F
CLARION *        N/A     73  43  33 S12G20    30.05F
ESTHERVILLE    SUNNY     71  43  36 S16G26    30.01F
6HR MIN TEMP:  49; 6HR MAX TEMP:  72;

FORT DODGE *   SUNNY     73  45  35 SE10G23   30.05F
MASON CITY     SUNNY     73  42  32 S13G30    30.07F
6HR MIN TEMP:  54; 6HR MAX TEMP:  73;

FOREST CITY *    N/A     73  27  17 S12G18    30.05F
WEBSTER CITY * SUNNY     73  43  33 S13G22    30.03F
IOWA FALLS *     N/A     73  42  33 S14       30.08F
$$

IAZ007>011-017>019-026>030-037>042-050>054-066-271900-
   NORTHEAST IOWA

CITY           SKY/WX    TMP DP  RH WIND       PRES   REMARKS
CEDAR RAPIDS   SUNNY     72  46  39 S8        30.10F
6HR MIN TEMP:  50; 6HR MAX TEMP:  73;

CHARLES CITY * SUNNY     72  41  33 SW14      30.08S
CLINTON *      SUNNY     73  47  39 SE5       30.12F
DECORAH *      SUNNY     72  45  37 VRB6      30.07F
DUBUQUE        SUNNY     70  43  37 VRB6      30.11F
6HR MIN TEMP:  51; 6HR MAX TEMP:  71;

MONTICELLO *   SUNNY     72  46  40 VRB5G13   30.10F
WATERLOO       SUNNY     73  41  31 S14       30.07F
6HR MIN TEMP:  52; 6HR MAX TEMP:  73;

$$

IAZ064-065-067-068-078-271900-
   EAST CENTRAL IOWA

CITY           SKY/WX    TMP DP  RH WIND       PRES   REMARKS
IOWA CITY      SUNNY     74  47  38 VRB5      30.12F
6HR MIN TEMP:  53; 6HR MAX TEMP:  74;

MT. PLEASANT * SUNNY     74  39  28 S10       30.11F
MUSCATINE *    SUNNY     75  43  31 VRB5G13   30.11F
QUAD CITIES    SUNNY     73  43  33 MISG      30.11F
6HR MIN TEMP:  54; 6HR MAX TEMP:  75;

$$

IAZ062-063-075>077-085>089-095>099-271900-
   SOUTHEAST IOWA

CITY           SKY/WX    TMP DP  RH WIND       PRES   REMARKS
BURLINGTON     SUNNY     73  43  33 VRB3      30.12F
6HR MIN TEMP:  56; 6HR MAX TEMP:  73;

FAIRFIELD *    SUNNY     75  39  27 SE6G15    30.10F
FORT MADISON * SUNNY     73  45  35 CALM      30.13F
KEOKUK *       SUNNY     73  45  35 VRB5      30.11F
OSKALOOSA *      N/A     73  45  36 SW7       30.09F
OTTUMWA        SUNNY     74  45  35 SE8       30.09F
6HR MIN TEMP:  53; 6HR MAX TEMP:  75;

WASHINGTON *   SUNNY     73  45  35 VRB7      30.11F
$$

ABBREVIATIONS USED IN REMARKS
   TC - TEMPERATURES IN CELSIUS
  WCI - WIND CHILL INDEX
   HX - HEAT INDEX
  VSB - VISIBILITY
$$





USA.gov is the U.S. government's official web portal to all federal, state and local government web resources and services.